Regional Weather Roundup
Issued by NWS

Home | Current Version | Previous Version | Graphics & Text | Print | Product List | Glossary On
Versions: 1 2 3 4 5 6 7 8 9 10 11 12 13 14 15 16 17 18 19 20 21 22 23 24 25 26 27 28 29 30 31 32 33 34 35 36 37 38 39 40 41 42 43 44 45 46 47 48 49 50
000
ASUS45 KBOU 221907
RWRCO

WEATHER ROUNDUP FOR COLORADO
NATIONAL WEATHER SERVICE DENVER/BOULDER CO
100 PM MDT FRI AUG 22 2014

NOTE: "FAIR" INDICATES FEW OR NO CLOUDS BELOW 12000 FEET WITH NO
SIGNIFICANT WEATHER AND/OR OBSTRUCTIONS TO VISIBILITY.

COZ001>005-013-030-031-222000-
...NORTHWEST COLORADO...

CITY           SKY/WX    TMP DP  RH WIND       PRES   REMARKS
CRAIG          CLOUDY    74  46  36 NE6       30.12F
HAYDEN         CLOUDY    70  43  37 SE5       30.15F
MEEKER         PTSUNNY   73  46  38 S15       30.14F
MOUNT WERNER   NOT AVBL
STEAMBOAT SPGS CLOUDY    70  45  41 CALM      30.17F
WALDEN         PTSUNNY   63  43  48 SE6       30.26F
$$

COZ006>008-011-222000-
...WEST CENTRAL VALLEYS...

CITY           SKY/WX    TMP DP  RH WIND       PRES   REMARKS
GRAND JUNCTION CLOUDY    76  47  35 VRB7      30.06F
MONTROSE       CLOUDY    70  56  61 E6        30.16F
EAGLE          CLOUDY    64  50  59 CALM      30.22F
RIFLE          CLOUDY    72  49  44 E8        30.12F
DELTA          RAIN      75  52  45 E7        30.12F
NUCLA          CLOUDY    72  46  40 S6        30.18F
$$

COZ017>023-064>068-222000-
...SOUTHWEST COLORADO...

CITY           SKY/WX    TMP DP  RH WIND       PRES   REMARKS
DURANGO        CLOUDY    63  50  62 SE13      30.26F
CORTEZ         CLOUDY    72  52  49 SE8       30.17F
PAGOSA SPRINGS DRIZZLE   57  48  72 SE3       30.34S
TELLURIDE      CLOUDY    61  43  51 SE12      30.34S
WOLF CREEK PAS NOT AVBL
$$

COZ009-010-012-014-032>034-037-058>063-222000-
...CENTRAL COLORADO...

CITY           SKY/WX    TMP DP  RH WIND       PRES   REMARKS
ASPEN          CLOUDY    61  50  67 N6        30.25F
BUENA VISTA    LGT RAIN  63  43  48 S18G24    30.31S
COPPER MTN     LGT RAIN  50  39  66 S23       30.52F
BERTHOUD PASS  CLOUDY    41  41 100 SE16      30.57F
COTTONWOOD PAS DRIZZLE   57  43  58 CALM      30.42F
GUNNISON       CLOUDY    55  48  76 N9        30.31F
KREMMLING      CLOUDY    63  46  55 CALM      30.25F
LEADVILLE      LGT RAIN  52  44  74 S16       30.40R
MONARCH PASS   FOG       43  41  93 S17G23    30.64F VSB<1/4
SALIDA         CLOUDY    64  43  46 S10G18    30.37S
SUNLIGHT       CLOUDY    54  46  76 CALM      30.46S
WILKERSON PASS NOT AVBL
$$

COZ069>075-222000-
...SAN LUIS VALLEY/SANGRE DE CRISTO MOUNTAINS...

CITY           SKY/WX    TMP DP  RH WIND       PRES   REMARKS
ALAMOSA        RAIN      56  53  90 S8        30.33F FOG
LA VETA PASS   NOT AVBL
SAGUACHE       LGT RAIN  54  52  94 SE10      30.36F
$$

COZ035-036-038>040-222000-
...NORTHERN COLORADO FRONT RANGE...

CITY           SKY/WX    TMP DP  RH WIND       PRES   REMARKS
DENVER INTL AP CLOUDY    71  55  56 SE7       30.14F
DMNS CITY PARK   N/A     72  55  55 S5        30.14S
AURORA         LGT RAIN  68  57  68 SW6       30.17F
FRONT RANGE AP NOT AVBL
ERIE MUNI ARPT CLOUDY    72  56  56 CALM      30.12F
BOULDER MUN AP CLOUDY    72  55  56 E5        30.13F
CENTENNIAL     LGT RAIN  67  55  65 CALM      30.18F
BROOMFIELD     CLOUDY    70  54  56 CALM      30.16F
FORT COLLINS   CLOUDY    73  57  56 S7        30.12F
LONGMONT       CLOUDY    74  55  50 SE3       30.13F
$$

COZ041-046-047-076>085-087-088-222000-
...PIKES PEAK/PALMER DIVIDE AND SOUTHERN FOOTHILLS...

CITY           SKY/WX    TMP DP  RH WIND       PRES   REMARKS
COLO. SPRINGS  CLOUDY    72  53  51 VRB5      30.20F
A. F. ACADEMY  LGT RAIN  70  54  57 SW6       30.21F
ELLICOTT       CLOUDY    71  55  56 E7        30.19F
FALCON         CLOUDY    71  54  55 E6        30.25F
FORT CARSON    DRIZZLE   72  54  53 S5        30.18F
LIMON          PTSUNNY   74  56  53 E13       30.16F
MONUMENT HILL  CLOUDY    64  54  68 E8        30.24F
TRINIDAD       PTSUNNY   79  51  37 N8        30.14F
$$

COZ042>045-048>051-090-091-222000-
...NORTHEAST COLORADO...

CITY           SKY/WX    TMP DP  RH WIND       PRES   REMARKS
GREELEY ARPT   CLOUDY    73  55  53 SW3       30.12F
AKRON          CLOUDY    72  60  66 NW13      30.13F
BURLINGTON     PTSUNNY   86  56  35 NE17G23   30.07F
WRAY             N/A     83  55  38 N15       30.06F
STERLING       CLOUDY    66  64  94 N5        30.09F
HOLYOKE        NOT AVBL
FORT MORGAN    CLOUDY    64  61  93 SE8       30.15R THUNDER
$$

COZ086-089-092>099-222000-
...SOUTHEAST COLORADO...

CITY           SKY/WX    TMP DP  RH WIND       PRES   REMARKS
PUEBLO         CLOUDY    79  55  43 E3        30.09F
LA JUNTA       LGT RAIN  81  59  47 VRB3      30.05F
LAMAR          LGT RAIN  82  65  56 NE6       30.00F
SPRINGFIELD      N/A     89  55  31 NW9       30.03F
$$


USA.gov is the U.S. government's official web portal to all federal, state and local government web resources and services.